| time (UTC) | temp F | wind direction | speed MPH | gust MPH | rain 1hr in | rain 24hr in | rain mn in | humidity % | barometer mb |
| 20260906165059 | 66 | 360 | 2.0 | 4.0 | 0.00 | 0.00 | 0.00 | 61 | 1025.1 |
| 20260906164603 | 66 | 360 | 2.0 | 4.0 | 0.00 | 0.00 | 0.00 | 61 | 1025.2 |
| 20260906164059 | 66 | 360 | 2.0 | 4.0 | 0.00 | 0.00 | 0.00 | 61 | 1025.2 |
| 20260906163557 | 65 | 209 | 0.0 | 3.0 | 0.00 | 0.00 | 0.00 | 63 | 1025.1 |
| 20260906163123 | 66 | 0 | 0.0 | 0.0 | 0.00 | 0.00 | 0.00 | 61 | 1025.2 |
| 20260906162557 | 65 | 0 | 0.0 | 1.0 | 0.00 | 0.00 | 0.00 | 58 | 1025.3 |
| 20260906162056 | 66 | 0 | 0.0 | 3.0 | 0.00 | 0.00 | 0.00 | 56 | 1025.3 |
| 20260906161612 | 66 | 360 | 0.0 | 3.0 | 0.00 | 0.00 | 0.00 | 57 | 1025.2 |
| 20260906161056 | 67 | 0 | 1.0 | 3.0 | 0.00 | 0.00 | 0.00 | 56 | 1025.3 |
| 20260906160556 | 68 | 245 | 0.0 | 3.0 | 0.00 | 0.00 | 0.00 | 54 | 1025.4 |
| 20260906160108 | 68 | 0 | 0.0 | 4.0 | 0.00 | 0.00 | 0.00 | 54 | 1025.4 |
| 20260906155557 | 68 | 245 | 2.0 | 4.0 | 0.00 | 0.00 | 0.00 | 53 | 1025.5 |
| 20260906155100 | 68 | 245 | 2.0 | 4.0 | 0.00 | 0.00 | 0.00 | 54 | 1025.6 |
| 20260906154603 | 68 | 245 | 1.0 | 4.0 | 0.00 | 0.00 | 0.00 | 54 | 1025.6 |
| 20260906154057 | 68 | 245 | 1.0 | 5.0 | 0.00 | 0.00 | 0.00 | 54 | 1025.6 |
| 20260906153559 | 68 | 0 | 0.0 | 5.0 | 0.00 | 0.00 | 0.00 | 52 | 1025.7 |
| 20260906153121 | 69 | 0 | 2.0 | 5.0 | 0.00 | 0.00 | 0.00 | 54 | 1025.7 |
| 20260906152600 | 69 | 0 | 2.0 | 10.0 | 0.00 | 0.00 | 0.00 | 54 | 1025.6 |
| 20260906152056 | 69 | 220 | 2.0 | 10.0 | 0.00 | 0.00 | 0.00 | 54 | 1025.6 |
| 20260906151611 | 69 | 223 | 5.0 | 10.0 | 0.00 | 0.00 | 0.00 | 55 | 1025.6 |
| 20260906151056 | 68 | 0 | 0.0 | 3.0 | 0.00 | 0.00 | 0.00 | 53 | 1025.8 |
| 20260906150556 | 68 | 0 | 0.0 | 3.0 | 0.00 | 0.00 | 0.00 | 53 | 1025.7 |
| 20260906150109 | 68 | 327 | 0.0 | 4.0 | 0.00 | 0.00 | 0.00 | 55 | 1025.8 |
| 20260906145559 | 68 | 0 | 2.0 | 8.0 | 0.00 | 0.00 | 0.00 | 54 | 1025.8 |
| 20260906145058 | 68 | 0 | 1.0 | 8.0 | 0.00 | 0.00 | 0.00 | 53 | 1025.8 |
| 20260906144600 | 69 | 335 | 2.0 | 8.0 | 0.00 | 0.00 | 0.00 | 53 | 1025.9 |
| 20260906144100 | 68 | 0 | 0.0 | 7.0 | 0.00 | 0.00 | 0.00 | 53 | 1025.9 |
| 20260906143557 | 69 | 0 | 3.0 | 9.0 | 0.00 | 0.00 | 0.00 | 52 | 1025.9 |
| 20260906143104 | 69 | 251 | 2.0 | 9.0 | 0.00 | 0.00 | 0.00 | 56 | 1026.0 |
| 20260906142557 | 69 | 259 | 4.0 | 9.0 | 0.00 | 0.00 | 0.00 | 52 | 1025.9 |
| 20260906142058 | 69 | 242 | 3.0 | 8.0 | 0.00 | 0.00 | 0.00 | 54 | 1025.9 |
| 20260906141607 | 68 | 304 | 3.0 | 8.0 | 0.00 | 0.00 | 0.00 | 53 | 1026.0 |
| 20260906141056 | 69 | 276 | 3.0 | 10.0 | 0.00 | 0.00 | 0.00 | 53 | 1025.9 |
| 20260906140556 | 69 | 281 | 5.0 | 10.0 | 0.00 | 0.00 | 0.00 | 53 | 1026.0 |
| 20260906140108 | 69 | 259 | 3.0 | 7.0 | 0.00 | 0.00 | 0.00 | 51 | 1026.0 |
| 20260906135557 | 68 | 0 | 1.0 | 7.0 | 0.00 | 0.00 | 0.00 | 53 | 1026.1 |
| 20260906135057 | 67 | 307 | 2.0 | 7.0 | 0.00 | 0.00 | 0.00 | 55 | 1026.1 |
| 20260906134600 | 68 | 325 | 3.0 | 7.0 | 0.00 | 0.00 | 0.00 | 52 | 1026.1 |
| 20260906134058 | 68 | 304 | 2.0 | 8.0 | 0.00 | 0.00 | 0.00 | 53 | 1026.1 |
| 20260906133559 | 68 | 232 | 0.0 | 9.0 | 0.00 | 0.00 | 0.00 | 56 | 1026.3 |
| 20260906133124 | 68 | 227 | 4.0 | 9.0 | 0.00 | 0.00 | 0.00 | 52 | 1026.3 |
| 20260906132557 | 68 | 333 | 3.0 | 9.0 | 0.00 | 0.00 | 0.00 | 53 | 1026.4 |
| 20260906132057 | 68 | 293 | 1.0 | 8.0 | 0.00 | 0.00 | 0.00 | 55 | 1026.4 |
| 20260906131617 | 67 | 0 | 2.0 | 11.0 | 0.00 | 0.00 | 0.00 | 53 | 1026.4 |
| 20260906131057 | 68 | 314 | 3.0 | 11.0 | 0.00 | 0.00 | 0.00 | 53 | 1026.4 |
| 20260906130559 | 68 | 311 | 3.0 | 11.0 | 0.00 | 0.00 | 0.00 | 53 | 1026.5 |
| 20260906130113 | 68 | 360 | 3.0 | 10.0 | 0.00 | 0.00 | 0.00 | 53 | 1026.6 |
| 20260906125602 | 67 | 0 | 4.0 | 13.0 | 0.00 | 0.09 | 0.00 | 56 | 1026.6 |
| 20260906125058 | 67 | 250 | 2.0 | 13.0 | 0.00 | 0.09 | 0.00 | 53 | 1026.7 |
| 20260906124600 | 68 | 360 | 3.0 | 10.0 | 0.00 | 0.09 | 0.00 | 55 | 1026.7 |
| 20260906124059 | 67 | 360 | 2.0 | 9.0 | 0.00 | 0.09 | 0.00 | 55 | 1026.7 |
| 20260906123556 | 67 | 360 | 4.0 | 11.0 | 0.00 | 0.09 | 0.00 | 54 | 1026.8 |
| 20260906123057 | 67 | 360 | 0.0 | 11.0 | 0.00 | 0.09 | 0.00 | 53 | 1026.7 |
| 20260906122558 | 68 | 360 | 6.0 | 11.0 | 0.00 | 0.09 | 0.00 | 51 | 1026.8 |
| 20260906122059 | 68 | 360 | 2.0 | 10.0 | 0.00 | 0.09 | 0.00 | 54 | 1026.8 |
| 20260906121603 | 67 | 360 | 5.0 | 10.0 | 0.00 | 0.09 | 0.00 | 56 | 1026.8 |
| 20260906121057 | 67 | 360 | 3.0 | 10.0 | 0.00 | 0.09 | 0.00 | 55 | 1026.9 |
| 20260906120558 | 67 | 360 | 4.0 | 10.0 | 0.00 | 0.09 | 0.00 | 55 | 1026.7 |
| 20260906120106 | 66 | 360 | 4.0 | 10.0 | 0.00 | 0.09 | 0.00 | 53 | 1026.7 |
| 20260906115558 | 67 | 360 | 4.0 | 10.0 | 0.00 | 0.09 | 0.00 | 55 | 1026.8 |
| 20260906115056 | 66 | 360 | 4.0 | 9.0 | 0.00 | 0.09 | 0.00 | 53 | 1026.8 |
| 20260906114606 | 66 | 360 | 3.0 | 9.0 | 0.00 | 0.09 | 0.00 | 51 | 1026.8 |
| 20260906114057 | 67 | 360 | 3.0 | 10.0 | 0.00 | 0.09 | 0.00 | 52 | 1027.0 |
| 20260906113556 | 66 | 360 | 4.0 | 10.0 | 0.00 | 0.09 | 0.00 | 54 | 1027.0 |
| 20260906113104 | 65 | 360 | 3.0 | 10.0 | 0.00 | 0.09 | 0.00 | 55 | 1027.0 |
| 20260906112557 | 66 | 360 | 4.0 | 10.0 | 0.00 | 0.09 | 0.00 | 52 | 1027.0 |
| 20260906112057 | 66 | 360 | 2.0 | 13.0 | 0.00 | 0.09 | 0.00 | 58 | 1027.0 |
| 20260906111603 | 66 | 360 | 6.0 | 13.0 | 0.00 | 0.09 | 0.00 | 55 | 1027.1 |
| 20260906111058 | 67 | 360 | 4.0 | 13.0 | 0.00 | 0.09 | 0.00 | 52 | 1027.1 |
| 20260906110558 | 67 | 360 | 3.0 | 12.0 | 0.00 | 0.09 | 0.00 | 57 | 1027.1 |
| 20260906105558 | 67 | 360 | 3.0 | 13.0 | 0.00 | 0.09 | 0.00 | 59 | 1027.1 |
| 20260906105058 | 67 | 360 | 7.0 | 13.0 | 0.00 | 0.09 | 0.00 | 56 | 1027.1 |
| 20260906104608 | 66 | 360 | 3.0 | 10.0 | 0.00 | 0.09 | 0.00 | 56 | 1027.1 |
| 20260906104057 | 66 | 360 | 4.0 | 12.0 | 0.00 | 0.09 | 0.00 | 55 | 1027.2 |
| 20260906103556 | 67 | 360 | 5.0 | 12.0 | 0.00 | 0.09 | 0.00 | 56 | 1027.1 |
| 20260906103111 | 67 | 360 | 5.0 | 14.0 | 0.00 | 0.09 | 0.00 | 58 | 1027.2 |
| 20260906102557 | 65 | 360 | 6.0 | 14.0 | 0.00 | 0.09 | 0.00 | 57 | 1027.2 |
| 20260906102057 | 65 | 360 | 7.0 | 14.0 | 0.00 | 0.09 | 0.00 | 56 | 1027.2 |
| 20260906101603 | 65 | 360 | 5.0 | 13.0 | 0.00 | 0.09 | 0.00 | 59 | 1027.1 |
| 20260906101059 | 65 | 360 | 6.0 | 13.0 | 0.00 | 0.09 | 0.00 | 57 | 1027.0 |
| 20260906100558 | 65 | 360 | 4.0 | 10.0 | 0.00 | 0.09 | 0.00 | 58 | 1027.0 |
| 20260906100111 | 65 | 360 | 5.0 | 10.0 | 0.00 | 0.09 | 0.00 | 60 | 1027.0 |
| 20260906095601 | 64 | 360 | 3.0 | 11.0 | 0.00 | 0.09 | 0.00 | 60 | 1027.0 |
| 20260906095057 | 64 | 360 | 5.0 | 11.0 | 0.00 | 0.09 | 0.00 | 60 | 1027.1 |
| 20260906094621 | 64 | 360 | 3.0 | 11.0 | 0.00 | 0.09 | 0.00 | 62 | 1027.3 |
| 20260906094056 | 64 | 360 | 3.0 | 10.0 | 0.00 | 0.09 | 0.00 | 63 | 1027.2 |
| 20260906093559 | 63 | 360 | 4.0 | 10.0 | 0.00 | 0.09 | 0.00 | 63 | 1027.3 |
| 20260906093107 | 64 | 360 | 4.0 | 10.0 | 0.00 | 0.09 | 0.00 | 62 | 1027.4 |
| 20260906092559 | 64 | 360 | 5.0 | 10.0 | 0.00 | 0.09 | 0.00 | 62 | 1027.4 |
| 20260906092056 | 64 | 360 | 3.0 | 10.0 | 0.00 | 0.09 | 0.00 | 64 | 1027.3 |
| 20260906091604 | 63 | 360 | 4.0 | 10.0 | 0.00 | 0.09 | 0.00 | 64 | 1027.3 |
| 20260906091102 | 63 | 360 | 4.0 | 10.0 | 0.00 | 0.09 | 0.00 | 65 | 1027.3 |
| 20260906090556 | 63 | 360 | 3.0 | 10.0 | 0.00 | 0.09 | 0.00 | 65 | 1027.2 |
| 20260906090115 | 63 | 360 | 5.0 | 10.0 | 0.00 | 0.09 | 0.00 | 65 | 1027.2 |
| 20260906085559 | 63 | 360 | 2.0 | 9.0 | 0.00 | 0.09 | 0.00 | 66 | 1027.2 |
| 20260906085100 | 63 | 279 | 4.0 | 10.0 | 0.00 | 0.09 | 0.00 | 67 | 1027.3 |
| 20260906084605 | 62 | 360 | 4.0 | 10.0 | 0.00 | 0.09 | 0.00 | 66 | 1027.3 |
| 20260906084056 | 62 | 360 | 4.0 | 10.0 | 0.00 | 0.09 | 0.00 | 66 | 1027.3 |
| 20260906083556 | 62 | 360 | 2.0 | 8.0 | 0.00 | 0.09 | 0.00 | 68 | 1027.2 |
| 20260906083105 | 62 | 360 | 4.0 | 9.0 | 0.00 | 0.09 | 0.00 | 68 | 1027.2 |
| 20260906082556 | 61 | 360 | 4.0 | 9.0 | 0.00 | 0.09 | 0.00 | 69 | 1027.3 |
| 20260906082056 | 60 | 360 | 1.0 | 9.0 | 0.00 | 0.09 | 0.00 | 68 | 1027.2 |
| 20260906081603 | 60 | 360 | 3.0 | 9.0 | 0.00 | 0.09 | 0.00 | 69 | 1027.2 |
| 20260906081058 | 61 | 360 | 3.0 | 8.0 | 0.00 | 0.09 | 0.00 | 68 | 1027.1 |
| 20260906080556 | 60 | 360 | 4.0 | 8.0 | 0.00 | 0.09 | 0.00 | 71 | 1027.1 |
| 20260906080104 | 60 | 360 | 3.0 | 6.0 | 0.00 | 0.09 | 0.00 | 72 | 1027.1 |
| 20260906075556 | 60 | 360 | 2.0 | 6.0 | 0.00 | 0.09 | 0.00 | 73 | 1027.1 |
| 20260906075056 | 60 | 360 | 3.0 | 6.0 | 0.00 | 0.09 | 0.00 | 73 | 1027.0 |
| 20260906074600 | 59 | 360 | 1.0 | 8.0 | 0.00 | 0.09 | 0.00 | 74 | 1027.0 |
| 20260906074056 | 59 | 360 | 3.0 | 9.0 | 0.00 | 0.09 | 0.00 | 74 | 1027.0 |
| 20260906073601 | 58 | 360 | 5.0 | 10.0 | 0.00 | 0.09 | 0.00 | 75 | 1027.0 |
| 20260906073104 | 58 | 360 | 5.0 | 10.0 | 0.00 | 0.09 | 0.00 | 75 | 1027.1 |
| 20260906072557 | 58 | 360 | 3.0 | 9.0 | 0.00 | 0.09 | 0.00 | 77 | 1027.1 |
| 20260906072056 | 57 | 360 | 5.0 | 9.0 | 0.00 | 0.09 | 0.00 | 77 | 1027.1 |
| 20260906071602 | 57 | 360 | 4.0 | 10.0 | 0.00 | 0.09 | 0.00 | 77 | 1027.1 |
| 20260906071056 | 57 | 360 | 4.0 | 10.0 | 0.00 | 0.09 | 0.00 | 78 | 1027.0 |
| 20260906070557 | 56 | 360 | 6.0 | 12.0 | 0.00 | 0.09 | 0.00 | 78 | 1026.8 |
| 20260906070104 | 56 | 360 | 4.0 | 12.0 | 0.00 | 0.09 | 0.00 | 78 | 1026.8 |
| 20260906065600 | 56 | 360 | 6.0 | 12.0 | 0.00 | 0.09 | 0.00 | 79 | 1026.8 |
| 20260906065056 | 56 | 360 | 5.0 | 10.0 | 0.00 | 0.09 | 0.00 | 79 | 1026.8 |
| 20260906064559 | 55 | 360 | 4.0 | 10.0 | 0.00 | 0.09 | 0.00 | 80 | 1026.8 |
| 20260906064058 | 55 | 360 | 4.0 | 11.0 | 0.00 | 0.09 | 0.00 | 80 | 1026.8 |
| 20260906063556 | 55 | 360 | 4.0 | 11.0 | 0.00 | 0.09 | 0.00 | 80 | 1026.7 |
| 20260906063103 | 54 | 360 | 6.0 | 11.0 | 0.00 | 0.09 | 0.00 | 81 | 1026.7 |
| 20260906062556 | 54 | 360 | 6.0 | 10.0 | 0.00 | 0.09 | 0.00 | 82 | 1026.7 |
| 20260906062057 | 54 | 360 | 3.0 | 9.0 | 0.00 | 0.09 | 0.00 | 83 | 1026.5 |
| 20260906061607 | 53 | 360 | 3.0 | 9.0 | 0.00 | 0.09 | 0.00 | 83 | 1026.4 |
| 20260906061056 | 53 | 360 | 3.0 | 9.0 | 0.00 | 0.09 | 0.00 | 84 | 1026.2 |
| 20260906060556 | 53 | 360 | 5.0 | 8.0 | 0.00 | 0.09 | 0.00 | 84 | 1026.3 |
| 20260906060107 | 52 | 360 | 3.0 | 6.0 | 0.00 | 0.09 | 0.00 | 85 | 1026.3 |
| 20260906055556 | 52 | 360 | 3.0 | 8.0 | 0.00 | 0.09 | 0.00 | 86 | 1026.2 |
| 20260906055056 | 52 | 360 | 3.0 | 8.0 | 0.00 | 0.09 | 0.00 | 87 | 1026.1 |
| 20260906054559 | 51 | 360 | 2.0 | 8.0 | 0.00 | 0.09 | 0.00 | 87 | 1026.2 |
| 20260906054058 | 51 | 360 | 3.0 | 8.0 | 0.00 | 0.09 | 0.00 | 88 | 1026.2 |
| 20260906053556 | 51 | 360 | 3.0 | 6.0 | 0.00 | 0.09 | 0.00 | 88 | 1026.3 |
| 20260906053058 | 50 | 360 | 2.0 | 6.0 | 0.00 | 0.09 | 0.00 | 89 | 1026.1 |
| 20260906052559 | 50 | 360 | 1.0 | 4.0 | 0.00 | 0.09 | 0.00 | 89 | 1026.1 |
| 20260906052059 | 50 | 360 | 2.0 | 5.0 | 0.00 | 0.09 | 0.00 | 89 | 1025.9 |
| 20260906051603 | 50 | 360 | 2.0 | 5.0 | 0.00 | 0.09 | 0.00 | 89 | 1025.8 |
| 20260906051058 | 50 | 360 | 3.0 | 6.0 | 0.00 | 0.09 | 0.00 | 89 | 1025.8 |
| 20260906050558 | 50 | 360 | 2.0 | 8.0 | 0.00 | 0.09 | 0.00 | 89 | 1025.8 |
| 20260906050105 | 50 | 360 | 3.0 | 8.0 | 0.00 | 0.09 | 0.00 | 90 | 1025.7 |
| 20260906045558 | 50 | 360 | 3.0 | 8.0 | 0.00 | 0.09 | 0.00 | 89 | 1025.7 |
| 20260906045058 | 50 | 360 | 3.0 | 6.0 | 0.00 | 0.09 | 0.00 | 90 | 1025.7 |
| 20260906044559 | 50 | 360 | 2.0 | 6.0 | 0.00 | 0.09 | 0.00 | 89 | 1025.7 |
| 20260906044058 | 50 | 360 | 2.0 | 6.0 | 0.00 | 0.09 | 0.00 | 89 | 1025.5 |
| 20260906043557 | 50 | 360 | 3.0 | 9.0 | 0.00 | 0.09 | 0.00 | 89 | 1025.5 |
| 20260906043102 | 50 | 360 | 3.0 | 9.0 | 0.00 | 0.09 | 0.00 | 89 | 1025.5 |
| 20260906042557 | 50 | 360 | 3.0 | 8.0 | 0.00 | 0.09 | 0.00 | 89 | 1025.5 |
| 20260906042057 | 50 | 360 | 5.0 | 8.0 | 0.00 | 0.09 | 0.00 | 89 | 1025.5 |
| 20260906041605 | 50 | 360 | 3.0 | 8.0 | 0.00 | 0.09 | 0.00 | 89 | 1025.4 |
| 20260906041058 | 50 | 360 | 3.0 | 8.0 | 0.00 | 0.09 | 0.00 | 89 | 1025.3 |
| 20260906040558 | 50 | 360 | 3.0 | 8.0 | 0.00 | 0.09 | 0.00 | 89 | 1025.2 |
| 20260906040104 | 50 | 360 | 3.0 | 8.0 | 0.00 | 0.09 | 0.00 | 89 | 1025.3 |
| 20260906035558 | 50 | 360 | 3.0 | 8.0 | 0.00 | 0.09 | 0.00 | 88 | 1025.2 |
| 20260906035058 | 51 | 360 | 3.0 | 8.0 | 0.00 | 0.09 | 0.00 | 88 | 1025.3 |
| 20260906034608 | 51 | 360 | 3.0 | 9.0 | 0.00 | 0.09 | 0.00 | 88 | 1025.4 |
| 20260906034057 | 51 | 360 | 4.0 | 9.0 | 0.00 | 0.09 | 0.00 | 88 | 1025.4 |
| 20260906033600 | 51 | 360 | 4.0 | 9.0 | 0.00 | 0.09 | 0.00 | 88 | 1025.5 |
| 20260906033108 | 51 | 360 | 3.0 | 9.0 | 0.00 | 0.09 | 0.00 | 88 | 1025.6 |
| 20260906032558 | 51 | 360 | 2.0 | 9.0 | 0.00 | 0.09 | 0.00 | 88 | 1025.6 |
| 20260906032057 | 51 | 360 | 3.0 | 9.0 | 0.00 | 0.09 | 0.00 | 88 | 1025.6 |
| 20260906031603 | 51 | 360 | 4.0 | 11.0 | 0.00 | 0.09 | 0.00 | 88 | 1025.5 |
| 20260906031058 | 51 | 360 | 5.0 | 11.0 | 0.00 | 0.09 | 0.00 | 88 | 1025.5 |
| 20260906030558 | 51 | 360 | 5.0 | 11.0 | 0.00 | 0.09 | 0.00 | 88 | 1025.4 |
| 20260906030109 | 51 | 360 | 4.0 | 11.0 | 0.00 | 0.09 | 0.00 | 88 | 1025.3 |
| 20260906025558 | 51 | 360 | 4.0 | 9.0 | 0.00 | 0.09 | 0.00 | 88 | 1025.3 |
| 20260906025058 | 51 | 360 | 4.0 | 11.0 | 0.00 | 0.09 | 0.00 | 88 | 1025.2 |
| 20260906024608 | 51 | 360 | 4.0 | 11.0 | 0.00 | 0.09 | 0.00 | 87 | 1025.2 |
| 20260906024057 | 51 | 360 | 3.0 | 9.0 | 0.00 | 0.09 | 0.00 | 87 | 1025.1 |
| 20260906023557 | 51 | 360 | 4.0 | 10.0 | 0.00 | 0.09 | 0.00 | 87 | 1025.1 |
| 20260906023106 | 51 | 360 | 4.0 | 10.0 | 0.00 | 0.09 | 0.00 | 87 | 1025.1 |
| 20260906022557 | 51 | 360 | 5.0 | 10.0 | 0.00 | 0.09 | 0.00 | 87 | 1025.0 |
| 20260906022058 | 52 | 360 | 4.0 | 9.0 | 0.00 | 0.09 | 0.00 | 87 | 1025.0 |
| 20260906021607 | 52 | 360 | 3.0 | 9.0 | 0.00 | 0.09 | 0.00 | 87 | 1025.1 |
| 20260906021059 | 52 | 360 | 4.0 | 9.0 | 0.00 | 0.09 | 0.00 | 86 | 1025.1 |
| 20260906020557 | 52 | 360 | 4.0 | 9.0 | 0.00 | 0.09 | 0.00 | 86 | 1025.0 |
| 20260906020108 | 52 | 360 | 5.0 | 9.0 | 0.00 | 0.09 | 0.00 | 87 | 1024.9 |
| 20260906015557 | 52 | 360 | 4.0 | 9.0 | 0.00 | 0.09 | 0.00 | 86 | 1025.0 |
| 20260906015057 | 52 | 360 | 4.0 | 9.0 | 0.00 | 0.09 | 0.00 | 86 | 1024.9 |
| 20260906014611 | 52 | 360 | 4.0 | 9.0 | 0.00 | 0.09 | 0.00 | 86 | 1024.9 |
| 20260906014059 | 52 | 360 | 4.0 | 8.0 | 0.00 | 0.09 | 0.00 | 86 | 1024.9 |
| 20260906013558 | 52 | 360 | 4.0 | 8.0 | 0.00 | 0.09 | 0.00 | 86 | 1024.8 |
| 20260906013100 | 53 | 360 | 3.0 | 8.0 | 0.00 | 0.09 | 0.00 | 85 | 1024.8 |
| 20260906012557 | 53 | 360 | 4.0 | 9.0 | 0.00 | 0.09 | 0.00 | 85 | 1024.7 |
| 20260906012059 | 53 | 360 | 4.0 | 9.0 | 0.00 | 0.09 | 0.00 | 85 | 1024.7 |
| 20260906011613 | 53 | 360 | 4.0 | 10.0 | 0.00 | 0.09 | 0.00 | 85 | 1024.5 |
| 20260906011058 | 53 | 360 | 4.0 | 10.0 | 0.00 | 0.09 | 0.00 | 85 | 1024.6 |
| 20260906010557 | 53 | 360 | 4.0 | 10.0 | 0.00 | 0.09 | 0.00 | 84 | 1024.6 |
| 20260906010108 | 53 | 360 | 4.0 | 10.0 | 0.00 | 0.09 | 0.00 | 84 | 1024.5 |
| 20260906005558 | 53 | 360 | 3.0 | 9.0 | 0.00 | 0.09 | 0.00 | 84 | 1024.6 |
| 20260906005058 | 53 | 360 | 3.0 | 12.0 | 0.00 | 0.09 | 0.00 | 84 | 1024.6 |
| 20260906004605 | 53 | 360 | 4.0 | 12.0 | 0.00 | 0.09 | 0.00 | 84 | 1024.5 |
| 20260906004058 | 53 | 360 | 3.0 | 9.0 | 0.00 | 0.09 | 0.00 | 83 | 1024.5 |
| 20260906003556 | 53 | 360 | 3.0 | 12.0 | 0.00 | 0.09 | 0.00 | 83 | 1024.5 |
| 20260906003113 | 53 | 360 | 4.0 | 12.0 | 0.00 | 0.09 | 0.00 | 83 | 1024.4 |
| 20260906002557 | 53 | 360 | 4.0 | 9.0 | 0.00 | 0.09 | 0.00 | 83 | 1024.4 |
| 20260906002101 | 53 | 360 | 3.0 | 11.0 | 0.00 | 0.09 | 0.00 | 83 | 1024.3 |
| 20260906001602 | 54 | 360 | 3.0 | 11.0 | 0.00 | 0.09 | 0.00 | 82 | 1024.3 |
| 20260906001101 | 54 | 360 | 4.0 | 10.0 | 0.00 | 0.09 | 0.00 | 82 | 1024.3 |
| 20260906000557 | 54 | 360 | 5.0 | 11.0 | 0.00 | 0.09 | 0.00 | 82 | 1024.3 |
| 20260906000108 | 54 | 360 | 4.0 | 12.0 | 0.00 | 0.09 | 0.00 | 82 | 1024.2 |
| 20260905235557 | 54 | 360 | 4.0 | 12.0 | 0.00 | 0.09 | 0.00 | 82 | 1024.2 |
| 20260905235059 | 54 | 360 | 6.0 | 12.0 | 0.00 | 0.09 | 0.00 | 82 | 1024.2 |
| 20260905234606 | 54 | 360 | 4.0 | 11.0 | 0.00 | 0.09 | 0.00 | 82 | 1024.2 |
| 20260905234058 | 54 | 360 | 5.0 | 10.0 | 0.00 | 0.09 | 0.00 | 82 | 1024.2 |
| 20260905233558 | 54 | 360 | 5.0 | 10.0 | 0.00 | 0.09 | 0.00 | 81 | 1024.1 |
| 20260905233125 | 54 | 360 | 5.0 | 11.0 | 0.00 | 0.09 | 0.00 | 81 | 1024.1 |
| 20260905232558 | 54 | 360 | 6.0 | 11.0 | 0.00 | 0.09 | 0.00 | 81 | 1024.1 |
| 20260905232058 | 54 | 360 | 5.0 | 12.0 | 0.00 | 0.09 | 0.00 | 81 | 1024.0 |
| 20260905231607 | 55 | 248 | 5.0 | 13.0 | 0.00 | 0.09 | 0.00 | 81 | 1024.0 |
| 20260905231057 | 55 | 268 | 6.0 | 13.0 | 0.00 | 0.09 | 0.00 | 81 | 1023.9 |
| 20260905230601 | 55 | 275 | 6.0 | 11.0 | 0.00 | 0.09 | 0.00 | 80 | 1023.9 |
| 20260905230109 | 55 | 257 | 4.0 | 10.0 | 0.00 | 0.09 | 0.00 | 80 | 1023.8 |
| 20260905225556 | 55 | 277 | 6.0 | 13.0 | 0.00 | 0.09 | 0.00 | 80 | 1023.7 |
| 20260905225058 | 55 | 271 | 7.0 | 13.0 | 0.00 | 0.09 | 0.00 | 80 | 1023.7 |
| 20260905224615 | 55 | 262 | 6.0 | 12.0 | 0.00 | 0.09 | 0.00 | 80 | 1023.7 |
| 20260905224058 | 56 | 250 | 6.0 | 14.0 | 0.00 | 0.09 | 0.00 | 79 | 1023.8 |
| 20260905223558 | 56 | 267 | 6.0 | 14.0 | 0.00 | 0.09 | 0.00 | 79 | 1023.7 |
| 20260905223108 | 56 | 268 | 5.0 | 13.0 | 0.00 | 0.09 | 0.00 | 79 | 1023.6 |
| 20260905222601 | 56 | 265 | 6.0 | 11.0 | 0.00 | 0.09 | 0.00 | 79 | 1023.7 |
| 20260905222057 | 56 | 275 | 5.0 | 10.0 | 0.00 | 0.09 | 0.00 | 79 | 1023.6 |
| 20260905221607 | 56 | 278 | 5.0 | 11.0 | 0.00 | 0.09 | 0.00 | 79 | 1023.5 |
| 20260905221058 | 56 | 288 | 5.0 | 11.0 | 0.00 | 0.09 | 0.00 | 79 | 1023.5 |
| 20260905220557 | 56 | 272 | 6.0 | 11.0 | 0.00 | 0.09 | 0.00 | 79 | 1023.5 |
| 20260905220105 | 56 | 252 | 4.0 | 11.0 | 0.00 | 0.09 | 0.00 | 79 | 1023.6 |
| 20260905215558 | 56 | 273 | 5.0 | 11.0 | 0.00 | 0.09 | 0.09 | 79 | 1023.5 |
| 20260905215058 | 56 | 268 | 5.0 | 12.0 | 0.00 | 0.09 | 0.09 | 78 | 1023.5 |
| 20260905214605 | 56 | 273 | 6.0 | 12.0 | 0.00 | 0.09 | 0.09 | 78 | 1023.4 |
| 20260905214057 | 57 | 270 | 5.0 | 10.0 | 0.00 | 0.09 | 0.09 | 78 | 1023.3 |
| 20260905213558 | 57 | 252 | 5.0 | 11.0 | 0.00 | 0.09 | 0.09 | 77 | 1023.3 |
| 20260905213106 | 57 | 360 | 4.0 | 13.0 | 0.00 | 0.09 | 0.09 | 77 | 1023.2 |
| 20260905212557 | 57 | 245 | 7.0 | 13.0 | 0.00 | 0.09 | 0.09 | 77 | 1023.2 |
| 20260905212058 | 57 | 287 | 6.0 | 11.0 | 0.00 | 0.09 | 0.09 | 77 | 1023.1 |
| 20260905211604 | 57 | 264 | 5.0 | 11.0 | 0.00 | 0.09 | 0.09 | 77 | 1023.1 |
| 20260905211057 | 57 | 360 | 6.0 | 12.0 | 0.00 | 0.09 | 0.09 | 77 | 1023.0 |
| 20260905210556 | 57 | 360 | 5.0 | 13.0 | 0.00 | 0.09 | 0.09 | 77 | 1022.9 |
| 20260905205558 | 57 | 360 | 7.0 | 12.0 | 0.00 | 0.09 | 0.09 | 77 | 1022.9 |
| 20260905205058 | 57 | 262 | 5.0 | 12.0 | 0.00 | 0.09 | 0.09 | 77 | 1022.8 |
| 20260905204606 | 57 | 276 | 6.0 | 12.0 | 0.00 | 0.09 | 0.09 | 77 | 1022.7 |
| 20260905204057 | 58 | 252 | 6.0 | 13.0 | 0.00 | 0.09 | 0.09 | 77 | 1022.7 |
| 20260905203559 | 58 | 360 | 5.0 | 13.0 | 0.00 | 0.09 | 0.09 | 77 | 1022.6 |
| 20260905203106 | 58 | 360 | 6.0 | 13.0 | 0.00 | 0.09 | 0.09 | 76 | 1022.7 |
| 20260905202600 | 58 | 279 | 4.0 | 14.0 | 0.00 | 0.09 | 0.09 | 76 | 1022.6 |
| 20260905202100 | 58 | 288 | 6.0 | 14.0 | 0.00 | 0.09 | 0.09 | 75 | 1022.5 |
| 20260905201613 | 58 | 257 | 6.0 | 13.0 | 0.00 | 0.09 | 0.09 | 75 | 1022.6 |
| 20260905201058 | 58 | 259 | 7.0 | 13.0 | 0.00 | 0.09 | 0.09 | 75 | 1022.5 |
| 20260905200557 | 58 | 281 | 6.0 | 13.0 | 0.00 | 0.09 | 0.09 | 75 | 1022.5 |
| 20260905200104 | 58 | 259 | 7.0 | 13.0 | 0.00 | 0.09 | 0.09 | 75 | 1022.6 |
| 20260905195556 | 59 | 263 | 8.0 | 12.0 | 0.00 | 0.09 | 0.09 | 75 | 1022.5 |
| 20260905195057 | 59 | 270 | 7.0 | 12.0 | 0.00 | 0.09 | 0.09 | 76 | 1022.4 |
| 20260905194607 | 59 | 360 | 5.0 | 12.0 | 0.00 | 0.09 | 0.09 | 75 | 1022.4 |
| 20260905194100 | 59 | 360 | 7.0 | 14.0 | 0.00 | 0.09 | 0.09 | 75 | 1022.4 |
| 20260905193559 | 59 | 360 | 6.0 | 14.0 | 0.00 | 0.09 | 0.09 | 75 | 1022.3 |
| 20260905193104 | 59 | 360 | 8.0 | 14.0 | 0.00 | 0.09 | 0.09 | 75 | 1022.2 |
| 20260905192558 | 59 | 360 | 5.0 | 12.0 | 0.00 | 0.09 | 0.09 | 75 | 1022.1 |
| 20260905192057 | 59 | 360 | 6.0 | 12.0 | 0.00 | 0.09 | 0.09 | 74 | 1022.1 |
| 20260905191610 | 59 | 360 | 7.0 | 13.0 | 0.00 | 0.09 | 0.09 | 74 | 1022.0 |
| 20260905191057 | 59 | 360 | 6.0 | 14.0 | 0.00 | 0.09 | 0.09 | 74 | 1021.9 |
| 20260905190556 | 60 | 360 | 6.0 | 14.0 | 0.00 | 0.09 | 0.09 | 74 | 1021.8 |
| 20260905190132 | 60 | 360 | 7.0 | 13.0 | 0.00 | 0.09 | 0.09 | 74 | 1021.8 |
| 20260905185556 | 60 | 360 | 7.0 | 13.0 | 0.00 | 0.09 | 0.09 | 74 | 1021.8 |
| 20260905185058 | 60 | 360 | 7.0 | 13.0 | 0.00 | 0.09 | 0.09 | 75 | 1021.8 |
| 20260905184620 | 60 | 360 | 7.0 | 13.0 | 0.00 | 0.09 | 0.09 | 74 | 1021.7 |
| 20260905184101 | 60 | 360 | 5.0 | 14.0 | 0.00 | 0.09 | 0.09 | 74 | 1021.6 |
| 20260905183559 | 60 | 360 | 7.0 | 14.0 | 0.00 | 0.09 | 0.09 | 74 | 1021.5 |
| 20260905183109 | 60 | 360 | 6.0 | 11.0 | 0.00 | 0.09 | 0.09 | 74 | 1021.4 |
| 20260905182557 | 60 | 360 | 5.0 | 14.0 | 0.00 | 0.09 | 0.09 | 73 | 1021.4 |
| 20260905182058 | 61 | 360 | 5.0 | 14.0 | 0.00 | 0.09 | 0.09 | 72 | 1021.2 |
| 20260905181603 | 61 | 360 | 6.0 | 15.0 | 0.00 | 0.09 | 0.09 | 71 | 1021.0 |
| 20260905181057 | 61 | 360 | 9.0 | 15.0 | 0.00 | 0.09 | 0.09 | 71 | 1020.9 |
| 20260905180557 | 61 | 360 | 6.0 | 16.0 | 0.00 | 0.09 | 0.09 | 71 | 1020.9 |
| 20260905180100 | 61 | 360 | 6.0 | 16.0 | 0.00 | 0.09 | 0.09 | 71 | 1020.9 |
| 20260905175557 | 62 | 360 | 7.0 | 16.0 | 0.00 | 0.13 | 0.09 | 71 | 1020.8 |
| 20260905175057 | 62 | 360 | 7.0 | 14.0 | 0.00 | 0.13 | 0.09 | 71 | 1020.8 |
| 20260905174603 | 62 | 360 | 7.0 | 14.0 | 0.00 | 0.13 | 0.09 | 71 | 1020.7 |
| 20260905174057 | 62 | 360 | 6.0 | 16.0 | 0.00 | 0.13 | 0.09 | 72 | 1020.7 |
| 20260905173601 | 62 | 360 | 7.0 | 16.0 | 0.00 | 0.13 | 0.09 | 72 | 1020.6 |
| 20260905173109 | 62 | 360 | 6.0 | 14.0 | 0.00 | 0.13 | 0.09 | 73 | 1020.6 |
| 20260905172559 | 62 | 360 | 5.0 | 11.0 | 0.00 | 0.13 | 0.09 | 74 | 1020.5 |
| 20260905172100 | 62 | 360 | 4.0 | 10.0 | 0.00 | 0.13 | 0.09 | 74 | 1020.5 |
| 20260905171603 | 62 | 360 | 3.0 | 13.0 | 0.00 | 0.13 | 0.09 | 74 | 1020.4 |
| 20260905171057 | 62 | 360 | 4.0 | 13.0 | 0.00 | 0.13 | 0.09 | 74 | 1020.4 |
| 20260905170557 | 62 | 360 | 7.0 | 13.0 | 0.00 | 0.13 | 0.09 | 75 | 1020.3 |
| 20260905170113 | 62 | 360 | 5.0 | 14.0 | 0.00 | 0.13 | 0.09 | 76 | 1020.1 |
| 20260905165557 | 62 | 360 | 6.0 | 14.0 | 0.00 | 0.32 | 0.09 | 75 | 1020.1 |